Weather History for KTBN - March, 2014

Change the Weather History Date:

Monday, March 24, 2014

  Actual Average Record
Temperature  
Mean Temperature 34 °F -  
Max Temperature 44 °F 56 °F 78 °F (2007)
Min Temperature 24 °F 40 °F 21 °F (2008)
Degree Days  
Heating Degree Days 31    
Moisture  
Dew Point 24 °F    
Average Humidity 70    
Maximum Humidity 100    
Minimum Humidity 31    
Precipitation  
Precipitation 0.07 in - - ()
Sea Level Pressure  
Sea Level Pressure 30.21 in    
Wind  
Wind Speed 5 mph (North)    
Max Wind Speed 9 mph    
Max Gust Speed -    
Visibility 7 miles    
Events Rain , Snow    
Averages and records for this station are not official NWS values.
T = Trace of Precipitation, MM = Missing Value Source: NWS Daily Summary

Daily Weather History Graph

Daily Weather History Graph

Search for Another Location

Airport or City:

Trip Planner

Search our weather history database for the weather conditions in past years. The results will help you decide how hot, cold, wet, or windy it might be!

Date:

Astronomy

Mar. 24, 2014 Rise Set
Actual Time 7:05 AM CDT 7:24 PM CDT
Civil Twilight 6:39 AM CDT 7:50 PM CDT
Nautical Twilight 6:09 AM CDT 8:21 PM CDT
Astronomical Twilight 5:37 AM CDT 8:52 PM CDT
Moon 2:30 AM CDT (3/24) 12:56 PM CDT (3/24)
Length of Visible Light 13h 10m
Length of Day
12h 18m
Last Quarter, 43% of the Moon is Illuminated
Mar 24
Last Quarter
Mar 30
New
Apr 7
First Quarter
Apr 15
Full
Apr 22
Last Quarter

Hourly Weather History & Observations

Time (CDT) Temp. Windchill Dew Point Humidity Pressure Visibility Wind Dir Wind Speed Gust Speed Precip Events Conditions
12:58 AM 30.0 °F 24.1 °F 10.0 °F 43% 30.34 in 10.0 mi East 5.8 mph - N/A   Clear
1:58 AM 29.1 °F 23.0 °F 9.9 °F 45% 30.33 in 10.0 mi East 5.8 mph - N/A   Clear
2:58 AM 27.7 °F 21.3 °F 9.7 °F 47% 30.32 in 10.0 mi East 5.8 mph - N/A   Clear
3:58 AM 27.0 °F 20.5 °F 9.7 °F 48% 30.30 in 10.0 mi East 5.8 mph - N/A   Clear
4:58 AM 25.9 °F 20.3 °F 9.7 °F 50% 30.32 in 10.0 mi ENE 4.6 mph - N/A   Clear
5:58 AM 24.8 °F 17.9 °F 10.2 °F 54% 30.33 in 10.0 mi East 5.8 mph - N/A   Clear
6:58 AM 24.6 °F 15.8 °F 10.6 °F 55% 30.33 in 10.0 mi East 8.1 mph - N/A   Clear
7:58 AM 26.6 °F 18.2 °F 11.8 °F 54% 30.33 in 10.0 mi East 8.1 mph - N/A   Scattered Clouds
8:58 AM 29.5 °F 23.4 °F 13.5 °F 51% 30.34 in 10.0 mi East 5.8 mph - N/A   Mostly Cloudy
9:58 AM 33.8 °F 27.0 °F 15.1 °F 46% 30.34 in 10.0 mi ESE 8.1 mph - N/A   Partly Cloudy
10:58 AM 38.7 °F 32.9 °F 14.4 °F 37% 30.30 in 10.0 mi ESE 8.1 mph - N/A   Overcast
11:58 AM 40.3 °F 36.3 °F 13.6 °F 34% 30.29 in 10.0 mi SE 5.8 mph - N/A   Mostly Cloudy
12:58 PM 42.6 °F - 14.2 °F 32% 30.25 in 10.0 mi Calm Calm - N/A   Overcast
1:58 PM 43.3 °F 39.9 °F 15.6 °F 33% 30.22 in 10.0 mi Variable 5.8 mph - N/A   Overcast
2:58 PM 44.8 °F 41.6 °F 15.3 °F 31% 30.19 in 10.0 mi East 5.8 mph - N/A   Overcast
3:58 PM 43.7 °F 42.1 °F 17.6 °F 35% 30.18 in 10.0 mi NNW 3.5 mph - N/A   Partly Cloudy
4:03 PM 42.8 °F 37.5 °F 19.4 °F 39% 30.14 in 2.5 mi NNW 9.2 mph - N/A   Haze
4:13 PM 42.8 °F 38.0 °F 21.2 °F 42% 30.14 in 7.0 mi NW 8.1 mph - N/A   Scattered Clouds
4:23 PM 42.8 °F 38.0 °F 21.2 °F 42% 30.14 in 2.5 mi NW 8.1 mph - N/A   Haze
4:28 PM 42.8 °F 38.0 °F 21.2 °F 42% 30.14 in 2.5 mi WNW 8.1 mph - N/A   Haze
4:33 PM 41.0 °F 37.1 °F 23.0 °F 49% 30.14 in 3.0 mi NW 5.8 mph - N/A   Haze
4:58 PM 41.5 °F 39.6 °F 23.9 °F 50% 30.18 in 6.0 mi Variable 3.5 mph - N/A   Haze
4:59 PM 41.0 °F - 24.8 °F 53% 30.14 in 6.0 mi Variable 2.3 mph - N/A Rain Light Rain
5:09 PM 39.2 °F 35.9 °F 24.8 °F 56% 30.14 in 10.0 mi Variable 4.6 mph - N/A Rain Light Rain
5:12 PM 39.2 °F - 26.6 °F 61% 30.14 in 10.0 mi North 2.3 mph - N/A   Overcast
5:42 PM 39.2 °F 34.2 °F 28.4 °F 65% 30.15 in 6.0 mi WSW 6.9 mph - N/A   Haze
5:47 PM 39.2 °F 34.2 °F 30.2 °F 70% 30.15 in 6.0 mi SW 6.9 mph - N/A   Mostly Cloudy
5:55 PM 37.4 °F 33.8 °F 32.0 °F 81% 30.19 in 6.0 mi West 4.6 mph - N/A Rain , Snow Light Rain
6:12 PM 35.6 °F 31.7 °F 35.6 °F 100% 30.15 in 3.0 mi WNW 4.6 mph - N/A Snow Light Snow
6:42 PM 32.0 °F - 32.0 °F 100% 30.16 in 2.5 mi NNW 2.3 mph - N/A Snow Light Snow
6:47 PM 32.0 °F 28.7 °F 32.0 °F 100% 30.16 in 2.0 mi NW 3.5 mph - N/A Snow Light Snow
6:58 PM 32.0 °F - 32.0 °F 100% 30.21 in 2.0 mi NW 2.3 mph - 0.04 in Snow Light Snow
7:18 PM 32.0 °F - 32.0 °F 100% 30.16 in 1.8 mi Calm Calm - N/A Snow Light Snow
7:23 PM 32.0 °F - 32.0 °F 100% 30.16 in 1.8 mi Calm Calm - N/A Snow Light Snow
7:43 PM 32.0 °F - 32.0 °F 100% 30.16 in 2.5 mi West 2.3 mph - N/A Snow Light Snow
7:58 PM 32.0 °F 26.4 °F 32.0 °F 100% 30.21 in 2.5 mi North 5.8 mph - 0.02 in Snow Light Snow
8:03 PM 32.0 °F 24.8 °F 32.0 °F 100% 30.16 in 4.0 mi North 8.1 mph - N/A Snow Light Snow
8:38 PM 32.0 °F 26.4 °F 32.0 °F 100% 30.16 in 7.0 mi NNE 5.8 mph - N/A Snow Light Snow
8:58 PM 32.0 °F 27.5 °F 32.0 °F 100% 30.21 in 8.0 mi NNE 4.6 mph - 0.01 in Snow Light Snow
9:03 PM 32.0 °F 28.7 °F 32.0 °F 100% 30.18 in 10.0 mi North 3.5 mph - N/A Snow Light Snow
9:08 PM 32.0 °F 28.7 °F 32.0 °F 100% 30.18 in 10.0 mi North 3.5 mph - N/A Snow Light Snow
9:39 PM 32.0 °F 28.7 °F 32.0 °F 100% 30.19 in 8.0 mi North 3.5 mph - N/A   Overcast
9:49 PM 32.0 °F 28.7 °F 32.0 °F 100% 30.18 in 9.0 mi North 3.5 mph - N/A   Overcast
9:54 PM 32.0 °F 28.7 °F 32.0 °F 100% 30.18 in 8.0 mi North 3.5 mph - N/A   Overcast
9:58 PM 31.8 °F 28.5 °F 31.8 °F 100% 30.22 in 8.0 mi North 3.5 mph - 0.00 in   Overcast
10:58 PM 32.0 °F - 32.0 °F 100% 30.22 in 10.0 mi NW 2.3 mph - N/A   Overcast
11:23 PM 32.0 °F 28.7 °F 32.0 °F 100% 30.18 in 8.0 mi NW 3.5 mph - N/A   Overcast
11:58 PM 32.0 °F 28.7 °F 32.0 °F 100% 30.22 in 8.0 mi West 3.5 mph - N/A   Overcast